Location: Newark
(33.6333°S, 78.8500°W)
Time: 22:43:07
(UTC+00:00)

Tiros 1 despin weight - Pass Details

Date: 20 September 2019
Orbit: 594 x 643 km, 48.2° (Epoch: 16 October)

Event Time Altitude Azimuth Distance (km) Brightness Sun altitude
Rises 08:22:15 0° 237° (WSW) 2,931 - -34.4°
Reaches altitude 10° 08:25:48 10° 209° (SSW) 2,035 - -33.7°
Maximum altitude 08:28:04 13° 180° (S) 1,828 - -33.3°
Exits shadow 08:28:40 13° 172° (S) 1,844 ? -33.2°
Drops below altitude 10° 08:30:22 10° 151° (SSE) 2,047 ? -32.8°
Sets 08:33:56 0° 124° (ESE) 2,962 ? -32.2°
